Preview of NWS' New Version of Forecast
This preview is not operational and should not be used for support decisions.

Regional Weather Roundup (RWR)

Issued by Gray - Portland, ME (GYX)

                            
000
ASUS41 KGYX 251705
RWRGYX
WEATHER ROUNDUP FOR MAINE AND NEW HAMPSHIRE
NATIONAL WEATHER SERVICE GRAY ME
100 PM EDT TUE JUN 25 2019

MEZ002-005-006-010-012-015-018-020-021-024-026-027-029-251800-
MAINE
  
CITY           SKY/WX    TMP DP  RH WIND       PRES   REMARKS
PORTLAND       CLOUDY    62  55  77 E9        29.95F                  
SANFORD        LGT RAIN  64  60  87 E7        29.94S                  
BAR HARBOR     FAIR      70  45  40 SE10      29.99S                  
WISCASSET      FAIR      68  53  58 E8        29.97S                  
ROCKLAND       FAIR      63  54  72 E10       29.98F                  
FRYEBURG       LGT RAIN  67  56  67 E7        29.94F                  
LEWISTONAUBURN PTSUNNY   68  57  68 S10       29.94S                  
AUGUSTA        FAIR      71  50  47 SE12      29.96S                  
WATERVILLE     FAIR      73  48  41 VRB5      29.93F                  
BANGOR         PTSUNNY   74  38  27 S15       29.96S                  
GREENVILLE       N/A     71  47  42 S8        29.93F                  
MILLINOCKET    FAIR      76  47  35 SE10      29.95F                  
HOULTON        FAIR      74  45  35 VRB7      29.94F                  
PRESQUE ISLE   FAIR      73  48  41 SE10G18   29.95F                  
FRENCHVILLE    FAIR      73  42  32 SE14      29.94F                  
CARIBOU        FAIR      73  43  33 S9        29.94F                  
$$

NHZ002-005-008-009-011-012-014-251800-
NEW HAMPSHIRE
  
CITY           SKY/WX    TMP DP  RH WIND       PRES   REMARKS
PORTSMOUTH     LGT RAIN  63  61  94 E9        29.91S FOG              
ROCHESTER      LGT RAIN  65  60  84 E5        29.92S                  
NASHUA         LGT RAIN  68  67  96 E5        29.90F                  
MANCHESTER     LGT RAIN  67  64  90 E5        29.88F                  
CONCORD        LGT RAIN  65  62  90 SE3       29.90F                  
LACONIA        LGT RAIN  65  61  87 NE7       29.92S                  
PLYMOUTH       LGT RAIN  64  60  88 E6        29.91F                  
BERLIN         LGT RAIN  66  54  65 S13       29.92S                  
WHITEFIELD     LGT RAIN  68  56  65 SE9       29.88S                  
JAFFREY        LGT RAIN  65  62  90 S5        29.90F                  
KEENE          CLOUDY    67  64  90 CALM      29.87S                  
LEBANON        CLOUDY    65  59  81 CALM      29.87S HAZE             
MT WASHINGTON  LGT RAIN  46  46 100 S33         N/A  VSB 1/4          
$$

VTZ005-007-008-251800-
VERMONT
  
CITY           SKY/WX    TMP DP  RH WIND       PRES   REMARKS
ST JOHNSBURY     N/A     62  61  96 MISG      29.85F                  
MONTPELIER     LGT RAIN  61  59  93 S6        29.89F                  
BURLINGTON     LGT RAIN  66  63  90 CALM      29.78R                  
$$

MAZ007-012-024-CTZ003-RIZ002-NYZ038-NYZ072-251800-
SOUTHERN NEW ENGLAND AND NY
  
CITY           SKY/WX    TMP DP  RH WIND       PRES   REMARKS
BOSTON         LGT RAIN  67  63  87 E3        29.91                   
WORCESTER      LGT RAIN  67  67 100 E6        29.90F FOG              
NANTUCKET      CLOUDY    63  61  93 S10       29.96S FOG              
PROVIDENCE     LGT RAIN  70  69  97 S10       29.91R FOG              
HARTFORD       CLOUDY    72  69  90 S8        29.85S                  
ALBANY         PTSUNNY   74  70  87 SW8       29.82R                  
NEW YORK CITY  CLOUDY    76  70  82 N5        29.82R HAZE             
$$

ANZ081-ANZ082-ANZ150-NHZ014-MEZ023>029-251800-
COASTAL MARINE OBSERVATIONS
  
STATION/POSITION TIME  TEMP    WIND        PRES    WAVE
                       AIR SEA DIR/SP/G            HT/PER
                 (UTC) (F)     (DEG/KT/KT) (MB)    (FT/S)
ISLE OF SHOALS   1600   60     100/  6/  6 1012.9F
JEFFREYS LEDGE   1608      59                N/A     2/ 4
CASHES LEDGE BUO 1650   58 56  150/ 14/ 16 1014.9R   2/ 3
GEORGES BANK BUO 1650   59 56  130/  8/  8 1017.5S   3/ 7
$$

.............KEY..............
   WCI - WIND CHILL
   TC  - TEMPERATURE IN CELSIUS
   VSB - VISIBILITY IN MILES
   HX  - HEAT INDEX
   FAIR- INDICATES FEW OR NO CLOUDS BELOW 12,000 FT, WITH NO 
         SIGNIFICANT WEATHER AND/OR OBSTRUCTIONS TO VISIBILITY.